| time (UTC) | temp F | wind direction | speed MPH | gust MPH | rain 1hr in | rain 24hr in | rain mn in | humidity % | barometer mb |
| 20260503052055 | 55 | 170 | 6.0 | 8.0 | 0.00 | 0.01 | 0.00 | 91 | 1013.6 |
| 20260503045056 | 53 | 168 | 3.0 | 4.0 | 0.00 | 0.01 | 0.00 | 96 | 1013.7 |
| 20260503044055 | 52 | 160 | 3.0 | 4.0 | 0.00 | 0.01 | 0.00 | 96 | 1013.8 |
| 20260503043056 | 52 | 148 | 3.0 | 4.0 | 0.00 | 0.01 | 0.00 | 95 | 1013.8 |
| 20260503042054 | 52 | 140 | 3.0 | 3.0 | 0.00 | 0.01 | 0.00 | 95 | 1013.8 |
| 20260503041055 | 53 | 153 | 0.0 | 0.0 | 0.00 | 0.02 | 0.00 | 95 | 1013.8 |
| 20260503035056 | 53 | 176 | 0.0 | 0.0 | 0.00 | 0.02 | 0.00 | 95 | 1014.0 |
| 20260503034057 | 54 | 180 | 2.0 | 3.0 | 0.00 | 0.02 | 0.00 | 95 | 1014.0 |
| 20260503033056 | 53 | 180 | 3.0 | 4.0 | 0.00 | 0.02 | 0.00 | 95 | 1014.0 |
| 20260503032058 | 53 | 185 | 2.0 | 3.0 | 0.00 | 0.02 | 0.00 | 94 | 1014.1 |
| 20260503031055 | 54 | 181 | 2.0 | 2.0 | 0.00 | 0.02 | 0.00 | 94 | 1014.1 |
| 20260503030055 | 54 | 165 | 3.0 | 4.0 | 0.00 | 0.02 | 0.00 | 94 | 1014.0 |
| 20260503025057 | 54 | 158 | 3.0 | 3.0 | 0.00 | 0.02 | 0.00 | 94 | 1014.1 |
| 20260503024058 | 54 | 146 | 2.0 | 2.0 | 0.00 | 0.02 | 0.00 | 94 | 1014.1 |
| 20260503023055 | 54 | 145 | 3.0 | 3.0 | 0.00 | 0.02 | 0.00 | 95 | 1014.2 |
| 20260503022053 | 53 | 158 | 2.0 | 2.0 | 0.00 | 0.02 | 0.00 | 93 | 1014.3 |
| 20260503021057 | 54 | 198 | 1.0 | 2.0 | 0.00 | 0.02 | 0.00 | 92 | 1014.3 |
| 20260503014054 | 56 | 213 | 2.0 | 2.0 | 0.00 | 0.02 | 0.00 | 89 | 1014.2 |
| 20260503013057 | 56 | 213 | 2.0 | 2.0 | 0.00 | 0.02 | 0.00 | 90 | 1014.3 |
| 20260503012058 | 56 | 201 | 3.0 | 3.0 | 0.00 | 0.02 | 0.00 | 90 | 1014.5 |
| 20260503011058 | 56 | 183 | 3.0 | 3.0 | 0.00 | 0.02 | 0.00 | 89 | 1014.6 |
| 20260503010058 | 57 | 203 | 4.0 | 4.0 | 0.00 | 0.02 | 0.00 | 87 | 1014.7 |
| 20260503005058 | 57 | 218 | 4.0 | 5.0 | 0.00 | 0.02 | 0.00 | 89 | 1014.8 |
| 20260503003056 | 57 | 216 | 4.0 | 5.0 | 0.00 | 0.02 | 0.00 | 87 | 1014.9 |
| 20260503002058 | 58 | 221 | 4.0 | 5.0 | 0.00 | 0.02 | 0.00 | 87 | 1014.9 |
| 20260503000104 | 57 | 208 | 3.0 | 3.0 | 0.00 | 0.02 | 0.00 | 87 | 1015.0 |
| 20260502233104 | 58 | 223 | 4.0 | 4.0 | 0.00 | 0.02 | 0.00 | 86 | 1015.1 |
| 20260502232105 | 59 | 220 | 1.0 | 3.0 | 0.00 | 0.02 | 0.00 | 85 | 1015.1 |
| 20260502231105 | 59 | 177 | 3.0 | 3.0 | 0.00 | 0.02 | 0.00 | 86 | 1015.1 |
| 20260502230104 | 59 | 188 | 5.0 | 6.0 | 0.00 | 0.02 | 0.00 | 86 | 1015.0 |
| 20260502225100 | 59 | 186 | 5.0 | 7.0 | 0.00 | 0.02 | 0.00 | 85 | 1015.1 |
| 20260502224105 | 59 | 187 | 4.0 | 5.0 | 0.00 | 0.02 | 0.00 | 86 | 1015.1 |
| 20260502223106 | 59 | 189 | 5.0 | 9.0 | 0.00 | 0.02 | 0.00 | 85 | 1015.1 |
| 20260502221108 | 59 | 187 | 4.0 | 5.0 | 0.00 | 0.02 | 0.00 | 86 | 1015.1 |
| 20260502220105 | 60 | 186 | 4.0 | 5.0 | 0.00 | 0.02 | 0.00 | 86 | 1015.0 |
| 20260502215111 | 60 | 185 | 5.0 | 7.0 | 0.00 | 0.02 | 0.02 | 85 | 1015.1 |
| 20260502214111 | 60 | 182 | 5.0 | 7.0 | 0.00 | 0.02 | 0.02 | 85 | 1015.2 |
| 20260502213111 | 60 | 186 | 4.0 | 6.0 | 0.00 | 0.02 | 0.02 | 86 | 1015.2 |
| 20260502211110 | 59 | 169 | 6.0 | 8.0 | 0.00 | 0.02 | 0.02 | 88 | 1015.3 |
| 20260502210113 | 59 | 173 | 5.0 | 7.0 | 0.00 | 0.02 | 0.02 | 89 | 1015.4 |
| 20260502205112 | 59 | 177 | 4.0 | 5.0 | 0.00 | 0.02 | 0.02 | 91 | 1015.5 |
| 20260502203114 | 59 | 163 | 3.0 | 4.0 | 0.00 | 0.02 | 0.02 | 93 | 1015.6 |
| 20260502202117 | 59 | 157 | 4.0 | 5.0 | 0.00 | 0.02 | 0.02 | 94 | 1015.7 |
| 20260502201118 | 59 | 154 | 3.0 | 4.0 | 0.00 | 0.02 | 0.02 | 95 | 1015.7 |
| 20260502200114 | 59 | 141 | 3.0 | 5.0 | 0.00 | 0.02 | 0.02 | 95 | 1015.8 |
| 20260502195105 | 59 | 131 | 3.0 | 5.0 | 0.00 | 0.02 | 0.02 | 95 | 1015.8 |
| 20260502194103 | 59 | 122 | 3.0 | 5.0 | 0.00 | 0.02 | 0.02 | 95 | 1015.8 |
| 20260502193111 | 59 | 123 | 3.0 | 5.0 | 0.00 | 0.02 | 0.02 | 94 | 1015.7 |
| 20260502192110 | 59 | 105 | 4.0 | 5.0 | 0.00 | 0.02 | 0.02 | 93 | 1015.7 |
| 20260502191112 | 60 | 100 | 3.0 | 5.0 | 0.00 | 0.02 | 0.02 | 92 | 1015.7 |
| 20260502190107 | 60 | 101 | 4.0 | 4.0 | 0.00 | 0.02 | 0.02 | 91 | 1015.6 |
| 20260502185109 | 61 | 141 | 2.0 | 3.0 | 0.00 | 0.02 | 0.02 | 88 | 1015.5 |
| 20260502184105 | 63 | 174 | 2.0 | 3.0 | 0.00 | 0.02 | 0.02 | 82 | 1015.3 |
| 20260502183108 | 64 | 155 | 2.0 | 3.0 | 0.01 | 0.02 | 0.02 | 80 | 1015.2 |
| 20260502182103 | 65 | 171 | 3.0 | 4.0 | 0.01 | 0.02 | 0.02 | 79 | 1015.1 |
| 20260502181104 | 65 | 171 | 4.0 | 6.0 | 0.01 | 0.02 | 0.02 | 79 | 1015.0 |
| 20260502180111 | 66 | 171 | 5.0 | 10.0 | 0.01 | 0.02 | 0.02 | 77 | 1015.1 |
| 20260502170104 | 71 | 217 | 4.0 | 6.0 | 0.00 | 0.02 | 0.02 | 57 | 1014.7 |
| 20260502164101 | 71 | 241 | 6.0 | 8.0 | 0.00 | 0.02 | 0.02 | 56 | 1014.9 |
| 20260502163106 | 71 | 234 | 6.0 | 9.0 | 0.00 | 0.02 | 0.02 | 55 | 1015.1 |
| 20260502152103 | 74 | 219 | 10.0 | 16.0 | 0.00 | 0.02 | 0.02 | 48 | 1015.6 |
| 20260502151105 | 73 | 219 | 10.0 | 15.0 | 0.00 | 0.02 | 0.02 | 49 | 1015.7 |
| 20260502123057 | 70 | 263 | 7.0 | 11.0 | 0.00 | 0.02 | 0.02 | 61 | 1018.4 |
| 20260502122057 | 70 | 282 | 7.0 | 11.0 | 0.00 | 0.02 | 0.02 | 62 | 1018.5 |
| 20260502113056 | 70 | 250 | 8.0 | 13.0 | 0.00 | 0.02 | 0.02 | 60 | 1019.2 |
| 20260502112057 | 69 | 224 | 8.0 | 12.0 | 0.00 | 0.02 | 0.02 | 60 | 1019.3 |
| 20260502111057 | 69 | 212 | 10.0 | 14.0 | 0.00 | 0.02 | 0.02 | 61 | 1019.5 |
| 20260502110055 | 69 | 245 | 10.0 | 15.0 | 0.00 | 0.02 | 0.02 | 60 | 1019.6 |
| 20260502105058 | 70 | 208 | 11.0 | 15.0 | 0.00 | 0.02 | 0.02 | 59 | 1019.5 |
| 20260502104056 | 69 | 223 | 9.0 | 12.0 | 0.00 | 0.02 | 0.02 | 61 | 1019.6 |
| 20260502103056 | 68 | 239 | 8.0 | 12.0 | 0.00 | 0.02 | 0.02 | 63 | 1019.7 |
| 20260502102055 | 68 | 233 | 6.0 | 10.0 | 0.00 | 0.02 | 0.02 | 65 | 1019.8 |
| 20260502101058 | 69 | 249 | 7.0 | 10.0 | 0.00 | 0.02 | 0.02 | 66 | 1019.8 |
| 20260502091057 | 66 | 191 | 10.0 | 13.0 | 0.00 | 0.02 | 0.02 | 70 | 1020.3 |
| 20260502071055 | 59 | 177 | 6.0 | 9.0 | 0.00 | 0.02 | 0.02 | 81 | 1021.2 |
| 20260502070051 | 59 | 160 | 4.0 | 6.0 | 0.00 | 0.02 | 0.02 | 82 | 1021.4 |
| 20260502065055 | 58 | 141 | 3.0 | 5.0 | 0.00 | 0.02 | 0.02 | 85 | 1021.5 |
| 20260502064054 | 57 | 137 | 2.0 | 3.0 | 0.00 | 0.02 | 0.02 | 88 | 1021.5 |
| 20260502063054 | 56 | 132 | 3.0 | 4.0 | 0.00 | 0.02 | 0.02 | 89 | 1021.7 |
| 20260502061055 | 55 | 131 | 3.0 | 4.0 | 0.00 | 0.02 | 0.02 | 90 | 1021.7 |
| 20260502060056 | 55 | 140 | 2.0 | 3.0 | 0.00 | 0.02 | 0.02 | 89 | 1021.7 |
| 20260502055057 | 54 | 159 | 3.0 | 4.0 | 0.00 | 0.02 | 0.02 | 90 | 1021.8 |
| 20260502054053 | 54 | 185 | 4.0 | 5.0 | 0.00 | 0.02 | 0.02 | 90 | 1021.8 |